Wind_Speed
20 21 24 24 25 24 25 29 28 24 26 40 34 39 36 39 38 41 44 46 48 49 51 54 53 52 50 49 51 51 50 48 51 53 49 45 45 48 48 44 45 41 42 43
20 22 23 26 27 28 29 31 27 29 30 39 38 41 42 43 44 47 50 53 55 56 59 58 57 55 53 55 54 52 51 52 53 51 48 47 48 51 45 40 41 41 44 46
19 23 24 26 27 31 33 33 36 40 36 40 46 51 48 49 52 53 54 57 59 58 59 60 62 59 54 53 53 56 57 57 54 52 51 48 49 50 50 45 44 45 48 45
19 24 27 28 27 35 39 37 45 46 49 52 52 57 54 55 55 54 55 56 58 60 62 60 57 54 52 56 59 60 60 57 51 48 50 52 56 53 51 52 51 49 51 48
20 24 28 28 31 35 41 43 45 48 51 55 58 58 59 60 59 62 62 64 65 69 71 71 69 67 67 66 66 66 64 59 52 48 50 57 58 56 56 59 55 55 55 54
22 27 28 30 31 35 41 44 47 50 51 56 55 58 58 62 65 66 71 74 76 77 76 76 77 76 73 70 68 65 63 60 57 51 48 53 57 61 59 61 59 58 58 60
32 28 28 32 36 39 42 45 51 54 55 56 56 59 61 64 68 71 73 75 77 79 81 82 79 76 73 72 72 68 59 53 50 47 47 53 60 64 62 62 60 61 59 62
35 34 32 36 39 42 44 46 47 54 58 58 61 65 66 68 70 71 74 79 81 81 81 78 75 75 74 70 59 54 51 46 51 49 51 52 53 61 58 67 62 66 72 69
40 41 42 40 38 39 41 42 47 52 55 59 63 67 71 75 78 82 85 86 85 84 81 77 75 70 62 53 55 51 63 58 51 54 59 65 66 69 68 72 74 75 73 69
38 43 43 46 43 42 45 50 53 55 58 63 63 69 77 80 84 87 90 90 88 86 83 78 73 65 64 65 63 64 67 63 58 68 62 69 75 78 83 83 84 79 82 79
36 42 45 44 46 48 51 54 57 61 66 69 73 75 82 86 87 88 88 86 84 81 78 74 70 63 62 65 67 74 71 60 74 74 68 71 74 77 79 77 76 77 84 82
43 48 48 50 52 51 53 58 65 69 70 72 71 82 85 87 87 86 83 80 76 73 70 71 71 70 68 69 70 71 71 76 79 77 76 80 86 86 85 87 92 86 90 88
48 53 56 58 57 58 62 65 71 73 74 78 79 86 84 82 78 76 76 77 73 66 62 62 63 66 67 64 70 78 84 88 88 81 60 49 37 29 30 33 33 35 42 50
54 59 59 59 56 62 65 71 76 78 81 81 85 86 81 79 79 79 77 78 78 77 76 78 81 85 85 78 72 68 63 62 42 22 20 21 24 23 23 24 26 26 28 32
51 54 57 60 62 66 71 74 76 76 79 81 83 85 85 85 86 86 88 89 89 88 79 71 60 44 32 26 21 15 15 15 19 21 20 19 21 21 23 23 23 23 29 30
56 57 60 64 66 72 74 76 76 79 81 85 87 90 87 87 89 89 83 71 55 44 36 29 15 13 17 17 9 8 11 14 20 21 21 21 21 20 22 24 25 27 31 31
58 62 67 69 71 72 75 77 82 84 86 86 86 87 88 85 76 55 44 38 34 28 27 22 19 13 5 10 23 14 13 10 11 17 20 21 21 23 25 27 27 30 33 32
63 67 69 70 72 74 81 82 80 81 81 81 82 81 77 65 50 37 35 31 27 29 26 25 21 5 11 12 9 10 14 13 18 20 23 23 23 26 25 27 27 31 34 38
66 66 69 73 74 76 74 70 70 71 71 66 64 54 44 42 37 32 38 32 30 29 24 19 20 11 17 14 14 9 14 18 20 23 24 24 26 26 27 31 33 36 35 39
65 68 71 71 71 73 69 70 70 69 66 58 52 48 44 47 46 39 36 34 34 25 15 9 12 13 16 9 10 12 13 18 21 23 24 26 28 29 31 34 38 39 39 43
67 68 65 65 66 66 62 59 52 46 40 30 21 19 20 26 28 31 31 39 26 14 9 12 14 9 10 12 14 14 16 18 21 24 26 29 31 33 35 35 37 39 42 43
62 60 57 60 55 51 39 32 26 19 16 16 20 20 21 20 20 21 20 16 7 8 8 11 7 7 11 13 16 16 18 22 23 24 27 30 32 35 37 40 41 42 42 42
54 56 52 53 47 39 25 19 18 14 15 16 15 15 16 16 17 15 12 10 9 9 7 5 4 5 8 10 13 16 19 21 25 28 32 36 39 42 45 45 45 44 42 40
52 51 47 40 32 22 19 17 15 16 17 19 17 15 15 16 16 15 12 7 5 3 5 7 7 7 9 11 14 17 19 22 26 29 30 31 32 34 36 33 35 36 34 31
48 42 39 26 23 18 19 19 19 21 22 22 22 20 19 18 15 15 12 9 8 6 6 6 7 5 7 9 12 14 17 20 23 26 29 30 32 33 31 31 31 31 27 23
40 34 29 23 24 22 24 25 25 23 24 25 23 21 20 19 16 15 15 15 13 11 10 9 9 9 9 12 15 17 18 20 22 26 28 28 30 31 31 30 27 26 24 18
Wind_Direction
269 263 264 267 262 262 265 268 269 258 260 266 267 270 271 271 275 280 282 283 285 287 288 288 286 286 282 277 271 273 275 280 283 282 278 272 270 271 270 268 262 261 266 267
270 270 270 273 275 278 278 277 279 274 268 266 270 270 271 273 275 277 280 283 287 288 288 288 288 287 282 274 273 275 281 283 282 278 274 268 263 264 267 259 259 258 263 263
269 272 276 276 276 276 274 281 284 287 278 274 280 279 278 280 281 282 284 286 288 287 288 292 292 290 282 274 269 275 278 278 277 278 278 272 269 269 267 259 257 257 261 260
272 276 276 277 276 279 285 284 291 295 293 295 293 289 290 289 287 288 289 291 294 295 294 293 290 284 277 272 272 275 275 275 274 267 265 260 257 259 262 260 256 258 260 262
284 280 283 289 285 283 292 292 295 294 295 295 293 297 298 296 296 295 294 295 294 294 293 290 287 285 281 279 277 277 279 280 278 263 259 255 255 255 257 258 261 258 258 260
282 278 285 287 289 290 293 295 294 295 294 293 298 293 294 296 294 293 292 291 290 291 289 285 282 279 278 278 279 281 281 281 279 268 261 254 254 256 256 259 263 264 262 262
284 285 283 286 288 288 290 290 291 291 291 294 294 294 295 295 293 292 292 291 289 288 286 284 284 284 284 285 286 286 283 286 276 268 260 257 255 255 257 260 261 263 263 265
286 280 281 287 289 290 289 285 284 281 287 290 288 288 289 290 290 289 288 287 286 286 287 288 288 288 290 289 287 283 274 275 268 264 270 267 255 256 264 262 263 265 260 264
290 291 295 293 293 292 293 289 286 286 287 291 295 297 297 296 294 291 290 291 293 294 294 294 294 295 293 292 285 272 288 267 262 265 259 265 259 257 260 258 256 257 261 261
280 288 288 293 296 296 294 295 295 295 295 293 293 293 290 290 289 289 291 293 294 295 295 293 292 288 292 277 286 277 276 259 274 277 273 262 261 262 259 259 259 262 261 259
275 278 286 290 293 296 298 298 297 296 296 296 292 287 288 291 293 293 294 294 294 292 289 287 286 283 282 265 279 266 272 278 279 282 275 269 267 262 261 256 257 257 255 255
282 281 285 288 295 296 294 295 295 293 293 293 294 291 292 293 294 296 296 292 289 285 282 281 278 276 272 269 268 269 267 270 274 277 268 270 273 273 271 268 269 264 256 256
279 283 287 290 295 296 299 294 289 294 294 292 295 295 296 295 294 289 285 282 281 280 280 279 274 272 268 266 268 270 271 276 277 280 280 278 270 269 273 274 269 270 266 262
278 283 289 290 292 293 287 286 291 293 294 295 293 295 293 292 289 287 282 279 281 283 283 281 279 281 285 288 286 285 272 270 277 260 258 264 264 270 275 278 284 281 279 272
287 287 289 291 289 287 288 290 291 292 293 293 294 293 293 290 287 285 285 286 289 290 291 289 288 285 281 297 306 255 257 246 250 257 264 264 265 266 276 278 279 278 286 273
285 287 287 287 289 291 292 291 292 292 293 293 294 293 292 291 291 293 295 299 303 301 295 288 270 276 286 303 293 254 245 249 260 258 268 271 273 275 278 281 282 289 295 281
284 285 287 290 292 291 290 292 292 295 296 295 295 294 294 295 298 299 303 305 302 305 299 291 238 335 245 250 271 250 272 254 260 257 267 267 270 280 286 289 290 298 301 298
286 288 291 291 291 292 295 296 298 297 296 295 294 294 293 294 294 298 296 298 308 299 286 283 259 244 253 249 256 230 249 265 266 267 263 267 278 286 285 290 294 298 304 308
291 293 294 293 294 294 296 299 295 295 297 294 294 294 293 291 288 288 285 288 301 302 286 272 262 246 240 248 255 280 270 269 267 260 266 275 284 286 294 292 295 298 302 318
292 291 293 297 296 298 302 300 302 300 302 301 299 296 294 296 288 280 280 279 286 291 282 224 297 267 238 227 247 259 275 285 280 275 277 285 289 292 291 292 294 302 308 317
293 294 296 298 300 302 304 303 304 305 311 312 333 350 351 348 317 304 295 278 289 276 298 279 289 261 237 252 255 261 274 288 288 286 285 284 283 285 290 294 299 304 309 317
294 297 298 300 302 304 301 306 319 334 359 7 359 356 0 3 7 5 0 346 309 312 290 283 277 265 267 261 265 270 278 285 285 287 289 290 290 291 295 298 299 302 309 314
297 298 300 302 303 303 308 327 336 337 336 344 346 342 352 354 6 7 5 352 317 286 266 296 315 308 295 290 285 282 282 285 291 292 291 290 291 290 292 294 296 298 304 309
299 301 301 300 296 296 312 315 313 310 324 328 329 328 330 331 346 345 332 318 322 302 286 295 295 296 300 298 300 305 310 312 310 310 310 309 309 306 300 299 295 294 295 296
300 299 297 289 289 294 296 303 305 305 305 307 314 317 316 319 326 317 310 308 298 290 274 268 271 294 316 318 318 314 313 313 313 312 312 315 313 311 307 301 296 292 287 293
297 297 295 288 288 286 284 296 302 304 295 293 299 305 303 306 310 302 299 292 288 276 262 252 253 257 276 288 295 298 300 306 313 313 316 319 324 321 313 304 299 292 288 288
Height
5770 5770 5770 5770 5768 5769 5769 5768 5770 5773 5773 5762 5768 5764 5766 5763 5764 5763 5762 5759 5758 5757 5754 5751 5748 5745 5743 5742 5740 5736 5732 5730 5727 5725 5724 5723 5723 5722 5720 5721 5720 5720 5719 5719
5768 5766 5767 5766 5766 5766 5764 5763 5767 5767 5766 5759 5760 5757 5756 5756 5755 5753 5751 5749 5747 5744 5740 5737 5735 5732 5729 5727 5725 5724 5721 5718 5715 5712 5711 5711 5712 5710 5709 5708 5705 5705 5706 5706
5761 5761 5762 5761 5761 5758 5757 5757 5755 5753 5755 5753 5749 5744 5748 5747 5745 5743 5742 5739 5735 5731 5726 5723 5720 5717 5713 5711 5710 5707 5705 5702 5700 5699 5696 5696 5695 5694 5694 5695 5692 5692 5691 5691
5758 5756 5755 5756 5757 5752 5749 5754 5747 5744 5741 5738 5737 5731 5736 5734 5731 5728 5724 5721 5717 5714 5710 5706 5704 5702 5700 5697 5694 5693 5689 5686 5682 5681 5681 5679 5677 5678 5679 5681 5680 5679 5677 5677
5754 5751 5749 5749 5749 5748 5743 5741 5739 5735 5731 5726 5723 5724 5716 5713 5713 5710 5707 5703 5700 5696 5692 5689 5685 5681 5678 5676 5674 5670 5667 5666 5664 5663 5664 5664 5663 5663 5662 5663 5665 5665 5665 5662
5749 5746 5744 5744 5743 5740 5736 5733 5730 5726 5722 5715 5717 5711 5707 5702 5698 5695 5691 5687 5683 5678 5671 5666 5663 5659 5656 5654 5651 5649 5647 5646 5646 5645 5644 5644 5644 5643 5645 5645 5647 5649 5649 5648
5737 5739 5739 5737 5734 5732 5729 5724 5718 5713 5709 5707 5702 5697 5695 5689 5684 5678 5674 5669 5662 5655 5648 5641 5637 5634 5632 5632 5630 5630 5630 5629 5627 5626 5625 5626 5627 5627 5628 5629 5630 5632 5634 5634
5729 5729 5729 5727 5724 5720 5717 5715 5711 5702 5699 5696 5689 5684 5681 5675 5669 5663 5655 5648 5639 5632 5627 5623 5619 5615 5611 5611 5610 5609 5610 5613 5610 5610 5609 5608 5607 5609 5611 5612 5612 5613 5615 5616
5716 5714 5714 5713 5713 5710 5706 5700 5695 5690 5687 5682 5676 5668 5661 5655 5647 5639 5631 5624 5618 5613 5607 5602 5598 5594 5590 5589 5592 5593 5593 5592 5592 5591 5593 5593 5588 5587 5589 5589 5589 5590 5592 5597
5711 5704 5704 5703 5701 5697 5690 5686 5681 5676 5668 5661 5664 5655 5641 5635 5628 5619 5612 5605 5599 5592 5586 5582 5579 5580 5579 5574 5574 5574 5573 5573 5572 5577 5575 5572 5569 5567 5567 5566 5567 5567 5569 5573
5703 5700 5698 5695 5692 5687 5682 5673 5667 5661 5654 5645 5639 5640 5626 5615 5607 5600 5593 5587 5580 5573 5568 5567 5565 5563 5563 5561 5557 5554 5554 5552 5554 5552 5550 5547 5545 5544 5543 5543 5543 5543 5545 5548
5690 5685 5683 5681 5677 5674 5668 5662 5655 5644 5639 5629 5621 5615 5610 5601 5591 5582 5573 5564 5559 5554 5551 5549 5548 5547 5547 5544 5538 5535 5532 5531 5528 5527 5524 5521 5520 5517 5515 5516 5514 5515 5519 5521
5678 5673 5670 5669 5666 5659 5653 5649 5639 5631 5623 5617 5606 5598 5589 5582 5574 5563 5554 5549 5542 5536 5535 5532 5528 5525 5523 5524 5518 5515 5509 5505 5501 5502 5500 5498 5498 5498 5498 5497 5496 5493 5492 5495
5665 5661 5660 5656 5654 5648 5640 5632 5624 5616 5605 5599 5587 5582 5574 5564 5553 5545 5537 5528 5525 5521 5518 5513 5507 5502 5498 5497 5491 5489 5481 5478 5483 5487 5488 5489 5490 5491 5490 5489 5487 5486 5485 5486
5653 5649 5647 5643 5638 5631 5624 5617 5609 5601 5590 5578 5573 5559 5553 5543 5533 5525 5516 5509 5506 5503 5499 5491 5486 5481 5480 5480 5470 5468 5469 5473 5476 5480 5482 5483 5483 5484 5484 5483 5482 5480 5479 5478
5640 5635 5631 5627 5621 5615 5608 5599 5592 5584 5576 5562 5550 5539 5527 5516 5508 5501 5494 5486 5483 5478 5476 5476 5475 5475 5475 5472 5470 5468 5469 5471 5473 5475 5476 5476 5477 5477 5477 5476 5475 5473 5471 5469
5628 5622 5617 5612 5607 5598 5590 5584 5572 5565 5555 5538 5526 5516 5505 5497 5489 5483 5480 5477 5473 5471 5469 5469 5467 5466 5469 5468 5466 5466 5467 5468 5469 5469 5469 5470 5471 5471 5470 5469 5467 5464 5461 5456
5613 5607 5599 5593 5587 5583 5571 5561 5554 5542 5532 5517 5506 5496 5487 5480 5480 5478 5471 5470 5468 5466 5463 5462 5461 5465 5466 5464 5463 5463 5464 5465 5465 5464 5464 5465 5465 5464 5462 5460 5458 5455 5451 5445
5600 5591 5581 5573 5569 5563 5554 5546 5533 5523 5521 5507 5494 5483 5476 5472 5470 5474 5464 5462 5461 5458 5457 5456 5458 5459 5461 5460 5460 5460 5460 5460 5460 5459 5459 5459 5457 5456 5454 5451 5449 5445 5440 5434
5584 5575 5568 5558 5546 5539 5537 5525 5515 5502 5501 5489 5479 5473 5465 5459 5458 5459 5457 5455 5454 5452 5451 5452 5454 5454 5455 5455 5456 5456 5456 5456 5455 5454 5453 5451 5449 5448 5445 5442 5438 5434 5429 5422
5567 5559 5551 5538 5529 5525 5515 5508 5501 5497 5492 5478 5472 5466 5461 5454 5446 5441 5442 5446 5447 5446 5447 5448 5448 5449 5451 5452 5452 5452 5452 5451 5449 5447 5446 5444 5442 5440 5437 5433 5429 5424 5419 5412
5552 5545 5538 5529 5519 5515 5507 5501 5496 5489 5483 5478 5472 5467 5462 5455 5450 5445 5442 5442 5443 5444 5445 5445 5445 5446 5447 5447 5447 5447 5447 5446 5444 5442 5440 5437 5435 5431 5428 5424 5419 5414 5410 5404
5539 5532 5527 5520 5512 5505 5501 5496 5491 5487 5483 5476 5472 5468 5463 5458 5453 5449 5445 5444 5444 5443 5443 5443 5442 5443 5444 5444 5445 5444 5443 5441 5439 5436 5433 5430 5426 5422 5417 5413 5409 5405 5402 5397
5525 5519 5513 5508 5502 5499 5496 5492 5490 5486 5479 5475 5471 5466 5462 5458 5454 5450 5448 5445 5444 5443 5442 5442 5442 5442 5441 5441 5440 5438 5437 5435 5432 5429 5426 5422 5418 5413 5408 5403 5400 5396 5393 5390
5512 5507 5506 5502 5498 5493 5491 5488 5481 5479 5476 5473 5469 5465 5460 5457 5453 5451 5449 5446 5444 5442 5441 5440 5440 5439 5438 5437 5436 5435 5433 5431 5428 5425 5421 5415 5411 5405 5400 5395 5392 5388 5385 5384
5503 5500 5498 5497 5494 5492 5486 5480 5476 5473 5471 5469 5465 5461 5458 5455 5451 5449 5447 5445 5442 5440 5439 5438 5437 5436 5434 5433 5432 5431 5429 5426 5422 5418 5415 5409 5404 5399 5394 5390 5386 5383 5381 5380